Weather Roundup
Issued by NWS Chicago, IL

Home | Current Version | Previous Version | Graphics & Text | Print | Product List | Glossary On
Versions: 1 2 3 4 5 6 7 8 9 10 11 12 13 14 15 16 17 18 19 20 21 22 23 24 25 26 27 28 29 30 31 32 33 34 35 36 37 38 39 40 41 42 43 44 45 46 47 48 49 50
000
NZUS59 KLOT 241106
HRRLOT

CHICAGO AREA WEATHER ROUNDUP
NATIONAL WEATHER SERVICE CHICAGO/ROMEOVILLE IL
600 AM CDT FRI OCT 24 2014

NOTE: "FAIR" INDICATES FEW OR NO CLOUDS BELOW 12,000 FEET WITH NO
SIGNIFICANT WEATHER AND/OR OBSTRUCTIONS TO VISIBILITY.

* THESE STATIONS ARE NOT UNDER NWS QUALITY CONTROL. THEY ALSO MAY NOT
  REPORT WEATHER SUCH AS PRECIPITATION OR FOG.

ILZ005-006-012>014-019>023-241200-
NORTHEAST ILLINOIS

CITY           SKY/WX    TMP DP  RH WIND       PRES   REMARKS
OHARE          CLOUDY    53  45  74 SW3       30.05S
MIDWAY         CLOUDY    54  46  74 SW6       30.05S
AURORA         CLOUDY    48  44  86 CALM      30.05F FOG
LANSING*       PTCLDY    49  45  84 SW3       30.06S
JOLIET*        CLOUDY    47  46  95 CALM      30.06S
WAUKEGAN       CLOUDY    47  44  90 CALM      30.04F
DUPAGE AIRPORT CLOUDY    52  45  77 SW5       30.05S
WHEELING       CLOUDY    53  45  74 CALM      30.06F
KANKAKEE*      CLEAR     47  45  93 S5        30.07F
MORRIS*        CLOUDY    49  48  97 CALM      30.05S
LEWIS AIRPORT* CLOUDY    50  46  84 CALM      30.06S
NORTHERLY IS     N/A     55  44  66 W3          N/A
$$

WIZ051-052-058>065-066-070>072-241200-
SOUTHEAST WISCONSIN

CITY           SKY/WX    TMP DP  RH WIND       PRES   REMARKS
MILWAUKEE      CLOUDY    51  49  92 W5        30.04S
KENOSHA*       CLOUDY    50  48  93 W5        30.05R FOG
RACINE*        CLOUDY    52  48  86 W5        30.06S
BURLINGTON     CLOUDY    48  48 100 W5        30.05R FOG
WAUKESHA       CLOUDY    48  48 100 W5        30.05R FOG
WEST BEND      CLOUDY    46  45  93 W3        30.03S FOG
$$

INZ001>003-010>013-019-020-241200-
NORTHWEST INDIANA

CITY           SKY/WX    TMP DP  RH WIND       PRES   REMARKS
GARY*          MOCLDY    52  45  76 S5        30.07S
MICHIGAN CITY* NOT AVBL
RENSSELAER*    NOT AVBL
VALPARAISO     CLOUDY    51  45  79 S3        30.07S
$$

LMZ740>746-241200-
SOUTHERN LAKE MICHIGAN

STATION/POSITION TIME  SKY/WX   TEMP WIND        PRES    VSBY
                                AIR  DIR/SP/G
                 (UTC)          (F)  (DEG/KT/KT) (MB)    (MI)
HARRISON CRIB    1000            54  210/  7/  8   N/A
BURNHAM HARBOR   1100            54  190/  3/  5   N/A
CALUMET HARBOR   1100            54  210/  3/  5 1016.5S
BURNS HARBOR     NOT AVBL
MICHIGAN CITY    1100            53  160/  6/  7   N/A
$$

ABBREVIATIONS USED IN REMARKS
   TC - TEMPERATURE IN CELSIUS
  WCI - WIND CHILL INDEX
   HX - HEAT INDEX
  VSB - VISIBILITY
$$



USA.gov is the U.S. government's official web portal to all federal, state and local government web resources and services.